Hourly Data Report for September 02, 2017

All times are specified in Local Standard Time (LST). Add 1 hour to adjust for Daylight Saving Time where and when it is observed.

SUSSEX FOUR CORNERS
NEW BRUNSWICK

45°44'30.048" N
65°31'44.039" W
47.00 m
8105210
71656
ASF

Download Data

Hourly Data (September 2017)
Hourly Data Report for September 2, 2017
Temp Definition
°C
Dew Point Temp Definition
°C
Rel Hum Definition
%
Wind Dir Definition
10's deg

Wind Spd Definition
km/h
Visibility Definition
km
Stn Press Definition
kPa
Hmdx Definition


Wind Chill Definition


Weather Definition


TIME
00:00 10.0 6.7 80 27 14   100.61     LegendNANA
01:00 9.9 6.4 79 26 15   100.68     LegendNANA
02:00 8.9 6.6 86 25 10   100.70     LegendNANA
03:00 8.6 6.4 86 26 8   100.76     LegendNANA
04:00 8.4 5.7 83 27 7   100.78     LegendNANA
05:00 8.4 5.6 83 26 9   100.87     LegendNANA
06:00 8.1 5.4 83 28 9   100.95     LegendNANA
07:00 9.1 5.6 79 28 9   101.01     LegendNANA
08:00 10.3 5.5 72 29 14   101.09     LegendNANA
09:00 10.7 5.5 70 31 12   101.14     LegendNANA
10:00 11.5 5.8 68 33 11   101.17     LegendNANA
11:00 12.1 6.2 67 32 8   101.20     LegendNANA
12:00 14.0 5.9 58 31 11   101.19     LegendNANA
13:00 15.0 7.4 60 28 10   101.20     LegendNANA
14:00 16.1 7.4 57 33 8   101.20     LegendNANA
15:00 17.4 7.3 51 32 4   101.23     LegendNANA
16:00 18.2 7.4 49 3 3   101.24     LegendNANA
17:00 18.5 7.4 48 2 6   101.25     LegendNANA
18:00 18.2 7.7 50 12 3   101.30     LegendNANA
19:00 15.7 8.8 63 21 4   101.37     LegendNANA
20:00 12.3 8.7 79 35 4   101.45     LegendNANA
21:00 11.0 8.3 83 23 4   101.54     LegendNANA
22:00 10.4 8.7 89 20 5   101.61     LegendNANA
23:00 9.1 7.8 92 25 5   101.62     LegendNANA

Notes on Data Quality.

Legend

  • E = Estimated
  • M = Missing
  • NA = Not Available
  • ‡ = Partner data that is not subject to review by the National Climate Archives
Date modified: